Time,TemperatureF,DewpointF,PressureIn,WindDirection,WindDirectionDegrees,WindSpeedMPH,WindSpeedGustMPH,Humidity,HourlyPrecipIn,Conditions,Clouds,dailyrainin,SoftwareType,DateUTC
2013-06-24 00:00:00,81.6,76.3,29.92,SE,132,4.0,4.0,84,0.00,,,0.00,Wunderground v.1.15,2013-06-24 05:00:00,
2013-06-24 00:05:00,81.6,76.3,29.92,East,82,3.0,4.0,84,0.00,,,0.00,Wunderground v.1.15,2013-06-24 05:05:00,
2013-06-24 00:15:00,81.5,76.2,29.92,SSE,148,4.0,4.0,84,0.00,,,0.00,Wunderground v.1.15,2013-06-24 05:15:00,
2013-06-24 00:25:00,81.5,76.2,29.92,SE,124,4.0,5.0,84,0.00,,,0.00,Wunderground v.1.15,2013-06-24 05:25:00,
2013-06-24 00:30:00,81.6,76.3,29.92,SE,136,4.0,4.0,84,0.00,,,0.00,Wunderground v.1.15,2013-06-24 05:30:00,
2013-06-24 00:35:00,81.6,76.3,29.92,South,172,4.0,4.0,84,0.00,,,0.00,Wunderground v.1.15,2013-06-24 05:35:00,
2013-06-24 00:40:00,81.6,76.3,29.92,South,170,4.0,5.0,84,0.00,,,0.00,Wunderground v.1.15,2013-06-24 05:40:00,
2013-06-24 00:50:00,81.6,76.3,29.92,SW,229,4.0,4.0,84,0.00,,,0.00,Wunderground v.1.15,2013-06-24 05:50:00,
2013-06-24 01:00:00,81.5,76.2,29.92,SSE,167,5.0,11.0,84,0.00,,,0.00,Wunderground v.1.15,2013-06-24 06:00:00,
2013-06-24 01:10:00,81.5,76.2,29.92,SE,136,6.0,6.0,84,0.00,,,0.00,Wunderground v.1.15,2013-06-24 06:10:00,
2013-06-24 01:15:00,81.5,76.2,29.92,South,186,5.0,6.0,84,0.00,,,0.00,Wunderground v.1.15,2013-06-24 06:15:00,
2013-06-24 01:30:00,81.4,76.1,29.92,SSE,156,4.0,4.0,84,0.00,,,0.00,Wunderground v.1.15,2013-06-24 06:30:00,
2013-06-24 01:35:00,81.4,76.1,29.92,SSW,193,4.0,4.0,84,0.00,,,0.00,Wunderground v.1.15,2013-06-24 06:35:00,
2013-06-24 01:45:00,81.3,76.4,29.92,ENE,69,4.0,5.0,85,0.00,,,0.00,Wunderground v.1.15,2013-06-24 06:45:00,
2013-06-24 01:50:00,81.3,76.4,29.92,ESE,121,5.0,5.0,85,0.00,,,0.00,Wunderground v.1.15,2013-06-24 06:50:00,
2013-06-24 01:55:00,81.2,76.3,29.92,South,169,4.0,5.0,85,0.00,,,0.00,Wunderground v.1.15,2013-06-24 06:55:00,
2013-06-24 02:00:00,81.2,76.3,29.91,ESE,121,3.0,5.0,85,0.00,,,0.00,Wunderground v.1.15,2013-06-24 07:00:00,
2013-06-24 02:10:00,81.1,76.2,29.91,WSW,246,4.0,4.0,85,0.00,,,0.00,Wunderground v.1.15,2013-06-24 07:10:00,
2013-06-24 02:15:00,81.1,76.2,29.91,SE,145,4.0,4.0,85,0.00,,,0.00,Wunderground v.1.15,2013-06-24 07:15:00,
2013-06-24 02:25:00,81.0,76.1,29.91,SSE,153,4.0,6.0,85,0.00,,,0.00,Wunderground v.1.15,2013-06-24 07:25:00,
2013-06-24 02:30:00,81.0,76.4,29.90,SE,126,4.0,5.0,86,0.00,,,0.00,Wunderground v.1.15,2013-06-24 07:30:00,
2013-06-24 02:35:00,81.0,76.4,29.90,ESE,118,3.0,5.0,86,0.00,,,0.00,Wunderground v.1.15,2013-06-24 07:35:00,
2013-06-24 02:40:00,80.9,76.3,29.90,SE,145,3.0,6.0,86,0.00,,,0.00,Wunderground v.1.15,2013-06-24 07:40:00,
2013-06-24 02:50:00,80.8,76.2,29.90,SE,136,4.0,4.0,86,0.00,,,0.00,Wunderground v.1.15,2013-06-24 07:50:00,
2013-06-24 02:55:00,80.9,76.7,29.90,ESE,113,4.0,4.0,87,0.00,,,0.00,Wunderground v.1.15,2013-06-24 07:55:00,
2013-06-24 03:00:00,80.8,76.6,29.90,SE,131,4.0,4.0,87,0.00,,,0.00,Wunderground v.1.15,2013-06-24 08:00:00,
2013-06-24 03:10:00,80.7,76.5,29.90,South,181,3.0,3.0,87,0.00,,,0.00,Wunderground v.1.15,2013-06-24 08:10:00,
2013-06-24 03:15:00,80.8,76.6,29.90,South,184,3.0,3.0,87,0.00,,,0.00,Wunderground v.1.15,2013-06-24 08:15:00,
2013-06-24 03:25:00,80.9,76.7,29.90,SE,145,4.0,7.0,87,0.00,,,0.00,Wunderground v.1.15,2013-06-24 08:25:00,
2013-06-24 03:30:00,80.9,76.7,29.90,SSE,152,4.0,4.0,87,0.00,,,0.00,Wunderground v.1.15,2013-06-24 08:30:00,
2013-06-24 03:35:00,80.9,76.7,29.90,SSE,158,5.0,6.0,87,0.00,,,0.00,Wunderground v.1.15,2013-06-24 08:35:00,
2013-06-24 03:40:00,81.0,76.8,29.90,SE,146,5.0,8.0,87,0.00,,,0.00,Wunderground v.1.15,2013-06-24 08:40:00,
2013-06-24 03:50:00,81.0,76.8,29.90,ESE,118,4.0,4.0,87,0.00,,,0.00,Wunderground v.1.15,2013-06-24 08:50:00,
2013-06-24 03:55:00,81.0,76.8,29.90,SSE,160,3.0,4.0,87,0.00,,,0.00,Wunderground v.1.15,2013-06-24 08:55:00,
2013-06-24 04:05:00,81.0,76.8,29.90,SE,125,4.0,6.0,87,0.00,,,0.00,Wunderground v.1.15,2013-06-24 09:05:00,
2013-06-24 04:10:00,81.0,76.8,29.91,South,174,5.0,5.0,87,0.00,,,0.00,Wunderground v.1.15,2013-06-24 09:10:00,
2013-06-24 04:15:00,81.0,76.8,29.91,SE,131,5.0,5.0,87,0.00,,,0.00,Wunderground v.1.15,2013-06-24 09:15:00,
2013-06-24 04:20:00,81.0,76.8,29.90,South,181,4.0,4.0,87,0.00,,,0.00,Wunderground v.1.15,2013-06-24 09:20:00,
2013-06-24 04:30:00,80.9,76.7,29.91,SE,143,4.0,5.0,87,0.00,,,0.00,Wunderground v.1.15,2013-06-24 09:30:00,
2013-06-24 04:40:00,80.9,76.7,29.91,SE,132,4.0,7.0,87,0.00,,,0.00,Wunderground v.1.15,2013-06-24 09:40:00,
2013-06-24 04:45:00,80.9,77.0,29.91,SE,134,4.0,7.0,88,0.00,,,0.00,Wunderground v.1.15,2013-06-24 09:45:00,
2013-06-24 04:50:00,80.9,77.0,29.91,South,181,4.0,4.0,88,0.00,,,0.00,Wunderground v.1.15,2013-06-24 09:50:00,
2013-06-24 04:55:00,80.8,76.9,29.91,SSE,158,4.0,4.0,88,0.00,,,0.00,Wunderground v.1.15,2013-06-24 09:55:00,
2013-06-24 05:05:00,80.9,77.0,29.91,ESE,111,4.0,7.0,88,0.00,,,0.00,Wunderground v.1.15,2013-06-24 10:05:00,
2013-06-24 05:15:00,80.8,76.9,29.91,East,96,4.0,4.0,88,0.00,,,0.00,Wunderground v.1.15,2013-06-24 10:15:00,
2013-06-24 05:20:00,80.8,76.9,29.91,SE,142,4.0,4.0,88,0.00,,,0.00,Wunderground v.1.15,2013-06-24 10:20:00,
2013-06-24 05:25:00,80.7,76.8,29.91,SE,146,4.0,4.0,88,0.00,,,0.00,Wunderground v.1.15,2013-06-24 10:25:00,
2013-06-24 05:30:00,80.7,76.8,29.91,SSW,194,4.0,4.0,88,0.00,,,0.00,Wunderground v.1.15,2013-06-24 10:30:00,
2013-06-24 05:35:00,80.7,76.8,29.92,SSW,196,4.0,6.0,88,0.00,,,0.00,Wunderground v.1.15,2013-06-24 10:35:00,
2013-06-24 05:40:00,80.7,76.8,29.91,SE,124,4.0,4.0,88,0.00,,,0.00,Wunderground v.1.15,2013-06-24 10:40:00,
2013-06-24 05:50:00,80.8,76.9,29.91,SE,139,5.0,5.0,88,0.00,,,0.00,Wunderground v.1.15,2013-06-24 10:50:00,
2013-06-24 05:55:00,80.8,76.9,29.91,SSE,157,4.0,6.0,88,0.00,,,0.00,Wunderground v.1.15,2013-06-24 10:55:00,
2013-06-24 06:00:00,80.7,76.8,29.91,SSE,160,4.0,4.0,88,0.00,,,0.00,Wunderground v.1.15,2013-06-24 11:00:00,
2013-06-24 06:10:00,80.6,76.7,29.91,SE,146,3.0,3.0,88,0.00,,,0.00,Wunderground v.1.15,2013-06-24 11:10:00,
2013-06-24 06:20:00,80.6,76.7,29.91,SE,124,4.0,4.0,88,0.00,,,0.00,Wunderground v.1.15,2013-06-24 11:20:00,
2013-06-24 06:25:00,80.6,76.7,29.91,SW,225,4.0,4.0,88,0.00,,,0.00,Wunderground v.1.15,2013-06-24 11:25:00,
2013-06-24 06:30:00,80.6,76.7,29.91,SSW,205,3.0,3.0,88,0.00,,,0.00,Wunderground v.1.15,2013-06-24 11:30:00,
2013-06-24 06:40:00,80.6,77.1,29.91,East,101,3.0,3.0,89,0.00,,,0.00,Wunderground v.1.15,2013-06-24 11:40:00,
2013-06-24 06:45:00,80.6,77.1,29.91,SSE,161,3.0,3.0,89,0.00,,,0.00,Wunderground v.1.15,2013-06-24 11:45:00,
2013-06-24 06:50:00,80.6,77.1,29.91,SSE,160,3.0,3.0,89,0.00,,,0.00,Wunderground v.1.15,2013-06-24 11:50:00,
2013-06-24 06:55:00,80.6,77.1,29.92,SSE,159,3.0,6.0,89,0.00,,,0.00,Wunderground v.1.15,2013-06-24 11:55:00,
2013-06-24 07:00:00,80.7,77.2,29.91,East,79,3.0,3.0,89,0.00,,,0.00,Wunderground v.1.15,2013-06-24 12:00:00,
2013-06-24 07:10:00,81.0,77.4,29.92,SSW,200,4.0,5.0,89,0.00,,,0.00,Wunderground v.1.15,2013-06-24 12:10:00,
2013-06-24 07:15:00,81.2,77.3,29.92,East,91,4.0,5.0,88,0.00,,,0.00,Wunderground v.1.15,2013-06-24 12:15:00,
2013-06-24 07:20:00,81.4,77.5,29.92,SE,124,4.0,4.0,88,0.00,,,0.00,Wunderground v.1.15,2013-06-24 12:20:00,
2013-06-24 07:25:00,81.6,77.4,29.92,SSE,152,3.0,8.0,87,0.00,,,0.00,Wunderground v.1.15,2013-06-24 12:25:00,
2013-06-24 07:35:00,82.1,77.8,29.92,ENE,70,4.0,4.0,87,0.00,,,0.00,Wunderground v.1.15,2013-06-24 12:35:00,
2013-06-24 07:40:00,82.3,78.0,29.93,SE,135,4.0,4.0,87,0.00,,,0.00,Wunderground v.1.15,2013-06-24 12:40:00,
2013-06-24 07:45:00,82.7,78.1,29.93,SSE,165,4.0,4.0,86,0.00,,,0.00,Wunderground v.1.15,2013-06-24 12:45:00,
2013-06-24 07:50:00,82.9,78.3,29.93,ESE,103,4.0,5.0,86,0.00,,,0.00,Wunderground v.1.15,2013-06-24 12:50:00,
2013-06-24 07:55:00,83.0,78.0,29.93,South,191,5.0,5.0,85,0.00,,,0.00,Wunderground v.1.15,2013-06-24 12:55:00,
2013-06-24 08:00:00,83.3,78.3,29.93,SE,131,4.0,6.0,85,0.00,,,0.00,Wunderground v.1.15,2013-06-24 13:00:00,
2013-06-24 08:10:00,83.5,78.2,29.93,SE,136,5.0,6.0,84,0.00,,,0.00,Wunderground v.1.15,2013-06-24 13:10:00,
2013-06-24 08:15:00,83.7,78.3,29.94,SE,131,4.0,6.0,84,0.00,,,0.00,Wunderground v.1.15,2013-06-24 13:15:00,
2013-06-24 08:20:00,83.9,78.2,29.94,SSE,158,4.0,6.0,83,0.00,,,0.00,Wunderground v.1.15,2013-06-24 13:20:00,
2013-06-24 08:25:00,83.8,78.1,29.94,East,97,4.0,9.0,83,0.00,,,0.00,Wunderground v.1.15,2013-06-24 13:25:00,
2013-06-24 08:30:00,83.7,78.0,29.94,East,101,5.0,7.0,83,0.00,,,0.00,Wunderground v.1.15,2013-06-24 13:30:00,
2013-06-24 08:35:00,83.8,78.1,29.95,ESE,110,5.0,8.0,83,0.00,,,0.00,Wunderground v.1.15,2013-06-24 13:35:00,
2013-06-24 08:45:00,83.9,78.2,29.95,South,176,6.0,8.0,83,0.00,,,0.00,Wunderground v.1.15,2013-06-24 13:45:00,
2013-06-24 08:50:00,83.8,77.7,29.95,SSW,193,6.0,6.0,82,0.00,,,0.00,Wunderground v.1.15,2013-06-24 13:50:00,
2013-06-24 08:55:00,84.0,77.9,29.95,ESE,118,6.0,6.0,82,0.00,,,0.00,Wunderground v.1.15,2013-06-24 13:55:00,
2013-06-24 09:00:00,84.3,77.5,29.95,South,174,6.0,6.0,80,0.00,,,0.00,Wunderground v.1.15,2013-06-24 14:00:00,
2013-06-24 09:05:00,84.6,77.7,29.95,SSW,203,7.0,7.0,80,0.00,,,0.00,Wunderground v.1.15,2013-06-24 14:05:00,
2013-06-24 09:10:00,84.9,77.7,29.95,WSW,245,6.0,10.0,79,0.00,,,0.00,Wunderground v.1.15,2013-06-24 14:10:00,
2013-06-24 09:20:00,86.1,78.0,29.95,SE,146,6.0,6.0,77,0.00,,,0.00,Wunderground v.1.15,2013-06-24 14:20:00,
2013-06-24 09:25:00,86.3,78.2,29.95,South,187,6.0,13.0,77,0.00,,,0.00,Wunderground v.1.15,2013-06-24 14:25:00,
2013-06-24 09:30:00,86.7,77.8,29.95,SSE,162,6.0,6.0,75,0.00,,,0.00,Wunderground v.1.15,2013-06-24 14:30:00,
2013-06-24 09:35:00,86.8,78.3,29.96,SE,132,5.0,10.0,76,0.00,,,0.00,Wunderground v.1.15,2013-06-24 14:35:00,
2013-06-24 09:40:00,86.5,77.6,29.96,South,176,6.0,8.0,75,0.00,,,0.00,Wunderground v.1.15,2013-06-24 14:40:00,
2013-06-24 09:45:00,86.9,78.0,29.96,SE,129,7.0,8.0,75,0.00,,,0.00,Wunderground v.1.15,2013-06-24 14:45:00,
2013-06-24 09:55:00,86.8,77.5,29.96,SSE,150,6.0,6.0,74,0.00,,,0.00,Wunderground v.1.15,2013-06-24 14:55:00,
2013-06-24 10:00:00,87.3,78.0,29.95,East,99,6.0,6.0,74,0.00,,,0.00,Wunderground v.1.15,2013-06-24 15:00:00,
2013-06-24 10:10:00,87.2,77.1,29.95,SSE,155,6.0,8.0,72,0.00,,,0.00,Wunderground v.1.15,2013-06-24 15:10:00,
2013-06-24 10:15:00,87.2,76.6,29.95,South,179,8.0,8.0,71,0.00,,,0.00,Wunderground v.1.15,2013-06-24 15:15:00,
2013-06-24 10:20:00,87.3,76.7,29.95,SSE,151,8.0,8.0,71,0.00,,,0.00,Wunderground v.1.15,2013-06-24 15:20:00,
2013-06-24 10:25:00,87.7,76.7,29.96,SE,136,7.0,8.0,70,0.00,,,0.00,Wunderground v.1.15,2013-06-24 15:25:00,
2013-06-24 10:30:00,88.0,76.1,29.95,East,99,7.0,7.0,68,0.00,,,0.00,Wunderground v.1.15,2013-06-24 15:30:00,
2013-06-24 10:40:00,88.1,76.6,29.96,South,179,7.0,7.0,69,0.00,,,0.00,Wunderground v.1.15,2013-06-24 15:40:00,
2013-06-24 10:45:00,88.6,75.8,29.96,SW,219,6.0,12.0,66,0.00,,,0.00,Wunderground v.1.15,2013-06-24 15:45:00,
2013-06-24 10:50:00,88.7,76.3,29.96,South,181,7.0,15.0,67,0.00,,,0.00,Wunderground v.1.15,2013-06-24 15:50:00,
2013-06-24 10:55:00,88.7,75.9,29.95,SSE,152,7.0,15.0,66,0.00,,,0.00,Wunderground v.1.15,2013-06-24 15:55:00,
2013-06-24 11:00:00,89.1,76.3,29.96,SSE,153,7.0,7.0,66,0.00,,,0.00,Wunderground v.1.15,2013-06-24 16:00:00,
2013-06-24 11:10:00,89.0,76.2,29.96,ESE,105,8.0,17.0,66,0.00,,,0.00,Wunderground v.1.15,2013-06-24 16:10:00,
2013-06-24 11:15:00,88.8,76.0,29.96,East,84,8.0,17.0,66,0.00,,,0.00,Wunderground v.1.15,2013-06-24 16:15:00,
2013-06-24 11:25:00,89.1,75.3,29.96,SE,142,8.0,8.0,64,0.00,,,0.00,Wunderground v.1.15,2013-06-24 16:25:00,
2013-06-24 11:30:00,89.1,76.3,29.96,ESE,104,8.0,8.0,66,0.00,,,0.00,Wunderground v.1.15,2013-06-24 16:30:00,
2013-06-24 11:35:00,89.5,75.7,29.96,South,186,7.0,9.0,64,0.00,,,0.00,Wunderground v.1.15,2013-06-24 16:35:00,
2013-06-24 11:45:00,89.2,76.4,29.96,ESE,122,7.0,8.0,66,0.00,,,0.00,Wunderground v.1.15,2013-06-24 16:45:00,
2013-06-24 11:50:00,89.1,76.3,29.96,South,179,8.0,8.0,66,0.00,,,0.00,Wunderground v.1.15,2013-06-24 16:50:00,
2013-06-24 11:55:00,89.7,75.9,29.96,South,176,7.0,8.0,64,0.00,,,0.00,Wunderground v.1.15,2013-06-24 16:55:00,
2013-06-24 12:00:00,89.7,74.5,29.96,SSE,160,7.0,7.0,61,0.00,,,0.00,Wunderground v.1.15,2013-06-24 17:00:00,
2013-06-24 12:15:00,89.7,75.4,29.96,SSW,193,7.0,18.0,63,0.00,,,0.00,Wunderground v.1.15,2013-06-24 17:15:00,
2013-06-24 12:25:00,90.1,74.8,29.96,South,173,7.0,7.0,61,0.00,,,0.00,Wunderground v.1.15,2013-06-24 17:25:00,
2013-06-24 12:35:00,89.8,76.0,29.96,ESE,104,8.0,13.0,64,0.00,,,0.00,Wunderground v.1.15,2013-06-24 17:35:00,
2013-06-24 12:40:00,90.1,74.8,29.95,SSE,159,8.0,8.0,61,0.00,,,0.00,Wunderground v.1.15,2013-06-24 17:40:00,
2013-06-24 12:45:00,90.0,76.2,29.95,SSE,162,8.0,8.0,64,0.00,,,0.00,Wunderground v.1.15,2013-06-24 17:45:00,
2013-06-24 12:55:00,90.1,76.3,29.95,South,181,8.0,9.0,64,0.00,,,0.00,Wunderground v.1.15,2013-06-24 17:55:00,
2013-06-24 13:00:00,89.7,75.9,29.95,SE,142,8.0,8.0,64,0.00,,,0.00,Wunderground v.1.15,2013-06-24 18:00:00,
2013-06-24 13:10:00,90.3,76.0,29.95,East,93,7.0,7.0,63,0.00,,,0.00,Wunderground v.1.15,2013-06-24 18:10:00,
2013-06-24 13:15:00,90.1,75.8,29.95,SW,214,8.0,9.0,63,0.00,,,0.00,Wunderground v.1.15,2013-06-24 18:15:00,
2013-06-24 13:20:00,89.9,76.1,29.95,SSE,150,9.0,10.0,64,0.00,,,0.00,Wunderground v.1.15,2013-06-24 18:20:00,
2013-06-24 13:30:00,89.7,77.3,29.95,East,96,9.0,9.0,67,0.00,,,0.00,Wunderground v.1.15,2013-06-24 18:30:00,
2013-06-24 13:40:00,89.8,76.0,29.94,SSE,158,7.0,7.0,64,0.00,,,0.00,Wunderground v.1.15,2013-06-24 18:40:00,
2013-06-24 13:45:00,89.5,76.2,29.94,ESE,109,8.0,8.0,65,0.00,,,0.00,Wunderground v.1.15,2013-06-24 18:45:00,
2013-06-24 13:50:00,89.6,75.8,29.94,South,180,9.0,9.0,64,0.00,,,0.00,Wunderground v.1.15,2013-06-24 18:50:00,
2013-06-24 13:55:00,89.7,75.9,29.94,SE,128,8.0,9.0,64,0.00,,,0.00,Wunderground v.1.15,2013-06-24 18:55:00,
2013-06-24 14:00:00,90.1,76.7,29.94,East,92,8.0,8.0,65,0.00,,,0.00,Wunderground v.1.15,2013-06-24 19:00:00,
2013-06-24 14:10:00,89.9,75.1,29.93,SSE,165,9.0,9.0,62,0.00,,,0.00,Wunderground v.1.15,2013-06-24 19:10:00,
2013-06-24 14:15:00,90.8,76.9,29.93,East,89,8.0,9.0,64,0.00,,,0.00,Wunderground v.1.15,2013-06-24 19:15:00,
2013-06-24 14:20:00,90.4,76.6,29.93,East,98,8.0,14.0,64,0.00,,,0.00,Wunderground v.1.15,2013-06-24 19:20:00,
2013-06-24 14:30:00,90.2,75.9,29.93,ESE,117,10.0,10.0,63,0.00,,,0.00,Wunderground v.1.15,2013-06-24 19:30:00,
2013-06-24 14:35:00,89.9,76.6,29.93,SE,128,9.0,10.0,65,0.00,,,0.00,Wunderground v.1.15,2013-06-24 19:35:00,
2013-06-24 14:40:00,89.5,76.6,29.92,East,98,10.0,11.0,66,0.00,,,0.00,Wunderground v.1.15,2013-06-24 19:40:00,
2013-06-24 14:50:00,89.5,76.6,29.92,South,179,9.0,11.0,66,0.00,,,0.00,Wunderground v.1.15,2013-06-24 19:50:00,
2013-06-24 14:55:00,89.7,76.4,29.92,SSE,150,9.0,11.0,65,0.00,,,0.00,Wunderground v.1.15,2013-06-24 19:55:00,
2013-06-24 15:05:00,89.4,75.6,29.91,SSW,197,10.0,16.0,64,0.00,,,0.00,Wunderground v.1.15,2013-06-24 20:05:00,
2013-06-24 15:10:00,89.3,76.0,29.91,SSE,150,9.0,9.0,65,0.00,,,0.00,Wunderground v.1.15,2013-06-24 20:10:00,
2013-06-24 15:15:00,89.3,76.0,29.91,ESE,120,10.0,10.0,65,0.00,,,0.00,Wunderground v.1.15,2013-06-24 20:15:00,
2013-06-24 15:25:00,89.8,76.5,29.91,ESE,120,9.0,22.0,65,0.00,,,0.00,Wunderground v.1.15,2013-06-24 20:25:00,
2013-06-24 15:30:00,89.7,75.9,29.91,SE,143,9.0,9.0,64,0.00,,,0.00,Wunderground v.1.15,2013-06-24 20:30:00,
2013-06-24 15:35:00,90.2,75.4,29.91,SSW,203,9.0,9.0,62,0.00,,,0.00,Wunderground v.1.15,2013-06-24 20:35:00,
2013-06-24 15:45:00,90.1,75.8,29.91,SSE,154,8.0,9.0,63,0.00,,,0.00,Wunderground v.1.15,2013-06-24 20:45:00,
2013-06-24 15:50:00,90.1,76.3,29.90,SSE,162,8.0,9.0,64,0.00,,,0.00,Wunderground v.1.15,2013-06-24 20:50:00,
2013-06-24 16:00:00,89.6,76.7,29.90,East,98,10.0,10.0,66,0.00,,,0.00,Wunderground v.1.15,2013-06-24 21:00:00,
2013-06-24 16:10:00,89.5,76.2,29.90,ESE,122,9.0,9.0,65,0.00,,,0.00,Wunderground v.1.15,2013-06-24 21:10:00,
2013-06-24 16:15:00,89.0,76.2,29.90,South,176,10.0,15.0,66,0.00,,,0.00,Wunderground v.1.15,2013-06-24 21:15:00,
2013-06-24 16:20:00,89.3,76.0,29.90,SW,233,10.0,10.0,65,0.00,,,0.00,Wunderground v.1.15,2013-06-24 21:20:00,
2013-06-24 16:25:00,89.2,75.9,29.90,East,101,9.0,10.0,65,0.00,,,0.00,Wunderground v.1.15,2013-06-24 21:25:00,
2013-06-24 16:35:00,89.1,76.7,29.90,SSE,148,9.0,10.0,67,0.00,,,0.00,Wunderground v.1.15,2013-06-24 21:35:00,
2013-06-24 16:40:00,89.2,75.9,29.90,ESE,113,9.0,10.0,65,0.00,,,0.00,Wunderground v.1.15,2013-06-24 21:40:00,
2013-06-24 16:45:00,89.4,76.1,29.90,ESE,108,9.0,10.0,65,0.00,,,0.00,Wunderground v.1.15,2013-06-24 21:45:00,
2013-06-24 16:50:00,89.3,76.0,29.89,SSE,166,8.0,8.0,65,0.00,,,0.00,Wunderground v.1.15,2013-06-24 21:50:00,
2013-06-24 16:55:00,88.8,75.5,29.89,SE,140,9.0,9.0,65,0.00,,,0.00,Wunderground v.1.15,2013-06-24 21:55:00,
2013-06-24 17:05:00,88.5,76.1,29.89,ESE,117,10.0,10.0,67,0.00,,,0.00,Wunderground v.1.15,2013-06-24 22:05:00,
2013-06-24 17:10:00,88.6,76.7,29.89,SE,128,10.0,10.0,68,0.00,,,0.00,Wunderground v.1.15,2013-06-24 22:10:00,
2013-06-24 17:15:00,88.8,76.4,29.89,ESE,119,8.0,10.0,67,0.00,,,0.00,Wunderground v.1.15,2013-06-24 22:15:00,
2013-06-24 17:20:00,88.7,76.3,29.89,SSE,165,8.0,8.0,67,0.00,,,0.00,Wunderground v.1.15,2013-06-24 22:20:00,
2013-06-24 17:25:00,88.6,75.8,29.89,ESE,112,9.0,10.0,66,0.00,,,0.00,Wunderground v.1.15,2013-06-24 22:25:00,
2013-06-24 17:30:00,88.6,77.1,29.88,ENE,63,8.0,8.0,69,0.00,,,0.00,Wunderground v.1.15,2013-06-24 22:30:00,
2013-06-24 17:35:00,88.3,75.9,29.88,SE,128,9.0,9.0,67,0.00,,,0.00,Wunderground v.1.15,2013-06-24 22:35:00,
2013-06-24 17:45:00,88.1,75.8,29.88,SE,127,9.0,9.0,67,0.00,,,0.00,Wunderground v.1.15,2013-06-24 22:45:00,
2013-06-24 17:50:00,88.3,77.3,29.88,SSE,158,8.0,8.0,70,0.00,,,0.00,Wunderground v.1.15,2013-06-24 22:50:00,
2013-06-24 18:00:00,87.9,76.0,29.88,SE,125,9.0,12.0,68,0.00,,,0.00,Wunderground v.1.15,2013-06-24 23:00:00,
2013-06-24 18:10:00,87.9,76.9,29.88,South,188,8.0,8.0,70,0.00,,,0.00,Wunderground v.1.15,2013-06-24 23:10:00,
2013-06-24 18:20:00,87.5,76.5,29.88,SW,219,8.0,8.0,70,0.00,,,0.00,Wunderground v.1.15,2013-06-24 23:20:00,
2013-06-24 18:25:00,87.3,76.7,29.88,East,84,9.0,9.0,71,0.00,,,0.00,Wunderground v.1.15,2013-06-24 23:25:00,
2013-06-24 18:35:00,87.1,77.0,29.87,South,187,7.0,10.0,72,0.00,,,0.00,Wunderground v.1.15,2013-06-24 23:35:00,
2013-06-24 18:40:00,87.0,76.5,29.87,SE,144,8.0,8.0,71,0.00,,,0.00,Wunderground v.1.15,2013-06-24 23:40:00,
2013-06-24 18:45:00,86.7,76.2,29.87,SW,224,9.0,9.0,71,0.00,,,0.00,Wunderground v.1.15,2013-06-24 23:45:00,
2013-06-24 18:55:00,86.8,76.3,29.87,South,172,7.0,9.0,71,0.00,,,0.00,Wunderground v.1.15,2013-06-24 23:55:00,
2013-06-24 19:00:00,86.8,75.8,29.87,SE,131,6.0,9.0,70,0.00,,,0.00,Wunderground v.1.15,2013-06-25 00:00:00,
2013-06-24 19:10:00,86.1,76.4,29.87,SSW,203,8.0,8.0,73,0.00,,,0.00,Wunderground v.1.15,2013-06-25 00:10:00,
2013-06-24 19:20:00,85.8,76.5,29.87,ENE,68,7.0,7.0,74,0.00,,,0.00,Wunderground v.1.15,2013-06-25 00:20:00,
2013-06-24 19:25:00,85.9,76.6,29.87,ESE,117,7.0,7.0,74,0.00,,,0.00,Wunderground v.1.15,2013-06-25 00:25:00,
2013-06-24 19:35:00,85.4,77.0,29.87,SSE,160,7.0,7.0,76,0.00,,,0.00,Wunderground v.1.15,2013-06-25 00:35:00,
2013-06-24 19:40:00,85.2,76.8,29.87,ESE,114,6.0,6.0,76,0.00,,,0.00,Wunderground v.1.15,2013-06-25 00:40:00,
2013-06-24 19:50:00,84.8,76.8,29.87,SE,134,7.0,7.0,77,0.00,,,0.00,Wunderground v.1.15,2013-06-25 00:50:00,
2013-06-24 19:55:00,84.6,76.6,29.87,ESE,111,8.0,8.0,77,0.00,,,0.00,Wunderground v.1.15,2013-06-25 00:55:00,
2013-06-24 20:00:00,84.4,76.8,29.87,SSE,162,7.0,7.0,78,0.00,,,0.00,Wunderground v.1.15,2013-06-25 01:00:00,
2013-06-24 20:10:00,84.0,76.8,29.87,SSE,158,8.0,8.0,79,0.00,,,0.00,Wunderground v.1.15,2013-06-25 01:10:00,
2013-06-24 20:20:00,83.8,77.0,29.87,SE,129,5.0,5.0,80,0.00,,,0.00,Wunderground v.1.15,2013-06-25 01:20:00,
2013-06-24 20:25:00,83.6,76.8,29.87,ESE,117,6.0,8.0,80,0.00,,,0.00,Wunderground v.1.15,2013-06-25 01:25:00,
2013-06-24 20:35:00,83.4,77.0,29.88,SE,137,7.0,9.0,81,0.00,,,0.00,Wunderground v.1.15,2013-06-25 01:35:00,
2013-06-24 20:40:00,83.3,76.9,29.88,ESE,111,7.0,7.0,81,0.00,,,0.00,Wunderground v.1.15,2013-06-25 01:40:00,
2013-06-24 20:50:00,83.2,77.1,29.88,South,180,5.0,5.0,82,0.00,,,0.00,Wunderground v.1.15,2013-06-25 01:50:00,
2013-06-24 21:00:00,83.0,77.3,29.88,SSE,155,6.0,6.0,83,0.00,,,0.00,Wunderground v.1.15,2013-06-25 02:00:00,
2013-06-24 21:10:00,82.9,77.2,29.88,South,173,5.0,5.0,83,0.00,,,0.00,Wunderground v.1.15,2013-06-25 02:10:00,
2013-06-24 21:15:00,82.9,77.6,29.88,SSW,204,4.0,7.0,84,0.00,,,0.00,Wunderground v.1.15,2013-06-25 02:15:00,
2013-06-24 21:25:00,82.9,77.6,29.89,SSE,162,4.0,7.0,84,0.00,,,0.00,Wunderground v.1.15,2013-06-25 02:25:00,
2013-06-24 21:30:00,82.8,77.5,29.89,ESE,117,4.0,4.0,84,0.00,,,0.00,Wunderground v.1.15,2013-06-25 02:30:00,
2013-06-24 21:35:00,82.8,77.5,29.89,SE,124,4.0,4.0,84,0.00,,,0.00,Wunderground v.1.15,2013-06-25 02:35:00,
2013-06-24 21:40:00,82.7,77.4,29.89,SSE,153,6.0,7.0,84,0.00,,,0.00,Wunderground v.1.15,2013-06-25 02:40:00,
2013-06-24 21:45:00,82.7,77.7,29.89,SE,139,7.0,7.0,85,0.00,,,0.00,Wunderground v.1.15,2013-06-25 02:45:00,
2013-06-24 21:50:00,82.7,77.7,29.89,South,190,6.0,9.0,85,0.00,,,0.00,Wunderground v.1.15,2013-06-25 02:50:00,
2013-06-24 22:00:00,82.6,77.6,29.90,East,101,6.0,6.0,85,0.00,,,0.00,Wunderground v.1.15,2013-06-25 03:00:00,
2013-06-24 22:10:00,82.5,77.5,29.90,ESE,105,5.0,5.0,85,0.00,,,0.00,Wunderground v.1.15,2013-06-25 03:10:00,
2013-06-24 22:15:00,82.5,77.5,29.90,SSE,160,5.0,6.0,85,0.00,,,0.00,Wunderground v.1.15,2013-06-25 03:15:00,
2013-06-24 22:20:00,82.5,77.5,29.90,SSW,213,5.0,6.0,85,0.00,,,0.00,Wunderground v.1.15,2013-06-25 03:20:00,
2013-06-24 22:40:00,82.5,77.5,29.91,SSE,160,5.0,11.0,85,0.00,,,0.00,Wunderground v.1.15,2013-06-25 03:40:00,
2013-06-24 22:45:00,82.5,77.5,29.91,ESE,110,6.0,11.0,85,0.00,,,0.00,Wunderground v.1.15,2013-06-25 03:45:00,
2013-06-24 22:55:00,82.5,77.5,29.92,South,174,5.0,12.0,85,0.00,,,0.00,Wunderground v.1.15,2013-06-25 03:55:00,
2013-06-24 23:00:00,82.4,77.8,29.92,South,177,6.0,6.0,86,0.00,,,0.00,Wunderground v.1.15,2013-06-25 04:00:00,
2013-06-24 23:05:00,82.4,77.8,29.92,ESE,114,5.0,6.0,86,0.00,,,0.00,Wunderground v.1.15,2013-06-25 04:05:00,
2013-06-24 23:10:00,82.4,77.8,29.92,ESE,122,5.0,8.0,86,0.00,,,0.00,Wunderground v.1.15,2013-06-25 04:10:00,
2013-06-24 23:15:00,82.4,77.8,29.92,SSE,162,5.0,9.0,86,0.00,,,0.00,Wunderground v.1.15,2013-06-25 04:15:00,
2013-06-24 23:20:00,82.4,77.8,29.93,SE,126,5.0,5.0,86,0.00,,,0.00,Wunderground v.1.15,2013-06-25 04:20:00,
2013-06-24 23:25:00,82.5,77.9,29.93,WSW,240,5.0,5.0,86,0.00,,,0.00,Wunderground v.1.15,2013-06-25 04:25:00,
2013-06-24 23:30:00,82.5,77.9,29.93,ESE,120,5.0,7.0,86,0.00,,,0.00,Wunderground v.1.15,2013-06-25 04:30:00,
2013-06-24 23:35:00,82.4,77.8,29.93,SE,132,5.0,7.0,86,0.00,,,0.00,Wunderground v.1.15,2013-06-25 04:35:00,
2013-06-24 23:40:00,82.4,77.8,29.93,ESE,118,5.0,5.0,86,0.00,,,0.00,Wunderground v.1.15,2013-06-25 04:40:00,
2013-06-24 23:50:00,82.3,77.7,29.93,SE,143,4.0,8.0,86,0.00,,,0.00,Wunderground v.1.15,2013-06-25 04:50:00,
2013-06-24 23:55:00,82.3,77.7,29.93,South,176,6.0,8.0,86,0.00,,,0.00,Wunderground v.1.15,2013-06-25 04:55:00,